Location: Albuquerque Trailhead
(34.7934°N, 106.3736°W)
Time: 04:57:59
(UTC+00:00)

Cosmos 773 Rocket - Pass Details

Date: 20 June 2021
Orbit: 746 x 776 km, 74.1° (Epoch: 29 July)

Event Time Altitude Azimuth Distance (km) Brightness Sun altitude
Exits shadow 10:44:03 16° 217° (SW) 1,917 5.4 -12.3°
Maximum altitude 10:48:05 53° 290° (WNW) 945 4.3 -11.7°
Drops below altitude 10° 10:53:15 10° 7° (N) 2,324 7.2 -10.9°
Sets 10:55:42 0° 12° (NNE) 3,252 8.1 -10.5°
